Zurück zum Katalog

STARLINK-31861

AktivKommunikationVLEO
NORAD 59906·PAYLOAD·🇺🇸 United States

Gestartet May 28, 2024 von Cape Canaveral Space Force Station

Loading…

Nächste Überflüge (nächste 24 Stunden)

TLE

AktuellSource: CelesTrak SupGP

Epoche: Sep 14, 2026, 21:40 UTC

1 59906C 24100X   26257.90326389 -.00020203  00000+0 -73203-3 0  2571
2 59906  42.9998 129.6811 0001293 266.9708 208.6921 15.27576677    15

Verfolge STARLINK-31861 in Echtzeit mit AllMySat

Download on the App Store